LINCON Weather Reports


Display with metric or nautical units.
time (UTC)temp
F
wind
direction
speed
MPH
gust
MPH
rain 1hr
in
rain 24hr
in
rain mn
in
humidity
%
barometer
mb
20220702051125 60 0 0.0 0.0 0.00 0.00 0.00 79 1014.5
20220702050625 61 0 0.0 0.0 0.00 0.00 0.00 78 1014.5
20220702050125 61 0 0.0 0.0 0.00 0.00 0.00 78 1014.5
20220702045625 61 0 0.0 0.0 0.00 0.00 0.00 79 1014.9
20220702045125 61 0 0.0 1.0 0.00 0.00 0.00 79 1014.8
20220702044626 61 357 0.0 1.0 0.00 0.00 0.00 79 1014.8
20220702044124 61 0 0.0 0.0 0.00 0.00 0.00 79 1014.8
20220702043624 61 0 0.0 0.0 0.00 0.00 0.00 79 1014.7
20220702043124 61 0 0.0 20.0 0.00 0.00 0.00 79 1014.8
20220702042624 61 324 0.0 20.0 0.00 0.00 0.00 78 1014.7
20220702042125 61 1 7.0 19.0 0.00 0.00 0.00 78 1014.6
20220702041624 61 336 14.0 19.0 0.00 0.00 0.00 78 1014.7
20220702041124 61 11 9.0 19.0 0.00 0.00 0.00 78 1014.7
20220702040624 61 11 11.0 19.0 0.00 0.00 0.00 78 1014.8
20220702040124 61 323 14.0 18.0 0.00 0.00 0.00 78 1014.6
20220702035624 61 323 11.0 14.0 0.00 0.00 0.00 79 1014.7
20220702035125 61 357 4.0 18.0 0.00 0.00 0.00 79 1014.7
20220702034624 61 288 0.0 18.0 0.00 0.00 0.00 79 1014.7
20220702034125 61 357 0.0 15.0 0.00 0.00 0.00 79 1014.7
20220702033625 61 357 4.0 21.0 0.00 0.00 0.00 78 1014.8
20220702033124 61 77 0.0 21.0 0.00 0.00 0.00 78 1014.8
20220702032624 61 334 0.0 20.0 0.00 0.00 0.00 78 1014.8
20220702032124 61 0 6.0 6.0 0.00 0.00 0.00 77 1014.8
20220702031624 61 0 0.0 0.0 0.00 0.00 0.00 77 1014.8
20220702031125 61 0 0.0 0.0 0.00 0.00 0.00 77 1014.9
20220702030628 61 0 0.0 0.0 0.00 0.00 0.00 77 1014.9
20220702030124 62 0 0.0 0.0 0.00 0.00 0.00 77 1014.9
20220702025624 62 0 0.0 0.0 0.00 0.00 0.00 77 1014.9
20220702025124 62 0 0.0 0.0 0.00 0.00 0.00 77 1014.9
20220702024624 62 0 0.0 0.0 0.00 0.00 0.00 76 1014.9
20220702024124 62 0 0.0 0.0 0.00 0.00 0.00 76 1015.0
20220702023624 62 0 0.0 0.0 0.00 0.00 0.00 76 1014.9
20220702023124 62 0 0.0 16.0 0.00 0.00 0.00 75 1014.9
20220702022624 62 0 0.0 16.0 0.00 0.00 0.00 75 1015.0
20220702022124 62 351 0.0 16.0 0.00 0.00 0.00 75 1015.0
20220702021624 62 357 0.0 17.0 0.00 0.00 0.00 75 1015.1
20220702021124 62 357 0.0 17.0 0.00 0.00 0.00 75 1015.0
20220702020624 63 0 2.0 2.0 0.00 0.00 0.00 75 1015.0
20220702020124 63 0 0.0 0.0 0.00 0.00 0.00 75 1015.0
20220702015624 63 0 0.0 0.0 0.00 0.00 0.00 75 1015.0
20220702015124 63 0 0.0 0.0 0.00 0.00 0.00 75 1015.1
20220702014624 63 357 0.0 0.0 0.00 0.00 0.00 75 1015.1
20220702014124 63 0 0.0 0.0 0.00 0.00 0.00 75 1015.2
20220702013624 63 0 0.0 11.0 0.00 0.00 0.00 75 1015.2
20220702013124 63 357 0.0 11.0 0.00 0.00 0.00 75 1015.2
20220702012625 63 357 0.0 9.0 0.00 0.00 0.00 74 1015.2
20220702012124 63 357 0.0 6.0 0.00 0.00 0.00 74 1015.2
20220702011625 63 0 0.0 0.0 0.00 0.00 0.00 75 1015.2
20220702011124 63 0 0.0 0.0 0.00 0.00 0.00 75 1015.4
20220702010624 63 0 0.0 0.0 0.00 0.00 0.00 75 1015.3
20220702010124 63 0 0.0 0.0 0.00 0.00 0.00 75 1015.3
20220702005624 63 0 0.0 0.0 0.00 0.00 0.00 75 1015.5
20220702005124 63 0 0.0 0.0 0.00 0.00 0.00 76 1015.5
20220702004624 63 0 0.0 0.0 0.00 0.00 0.00 76 1015.5
20220702004124 63 0 0.0 0.0 0.00 0.00 0.00 76 1015.6
20220702003624 63 0 0.0 0.0 0.00 0.00 0.00 76 1015.7
20220702003124 63 0 0.0 0.0 0.00 0.00 0.00 75 1015.8
20220702002624 63 0 0.0 0.0 0.00 0.00 0.00 76 1015.8
20220702002124 63 0 0.0 0.0 0.00 0.00 0.00 76 1015.8
20220702001624 63 0 0.0 0.0 0.00 0.00 0.00 76 1015.9
20220702001124 63 0 0.0 0.0 0.00 0.00 0.00 76 1015.9
20220702000625 63 0 0.0 0.0 0.00 0.00 0.00 76 1015.9
20220702000124 63 0 0.0 0.0 0.00 0.00 0.00 76 1016.1
20220701235624 63 0 0.0 0.0 0.00 0.00 0.00 76 1016.1
20220701235124 63 0 0.0 0.0 0.00 0.00 0.00 76 1016.2
20220701234624 63 0 0.0 0.0 0.00 0.00 0.00 76 1016.1
20220701234124 63 0 0.0 0.0 0.00 0.00 0.00 75 1016.2
20220701233624 64 0 0.0 0.0 0.00 0.00 0.00 75 1016.3
20220701233124 64 0 0.0 0.0 0.00 0.00 0.00 75 1016.3
20220701232624 64 0 0.0 0.0 0.00 0.00 0.00 75 1016.4
20220701232124 64 0 0.0 0.0 0.00 0.00 0.00 75 1016.4
20220701231624 64 0 0.0 0.0 0.00 0.00 0.00 75 1016.5
20220701231124 64 357 0.0 0.0 0.00 0.00 0.00 75 1016.5
20220701230624 64 0 0.0 0.0 0.00 0.00 0.00 75 1016.5
20220701230124 64 0 0.0 0.0 0.00 0.00 0.00 75 1016.5
20220701225624 64 0 0.0 0.0 0.00 0.00 0.00 75 1016.5
20220701225125 64 0 0.0 0.0 0.00 0.00 0.00 75 1016.6
20220701224624 64 0 0.0 0.0 0.00 0.00 0.00 75 1016.6
20220701224124 64 0 0.0 0.0 0.00 0.00 0.00 75 1016.6
20220701223624 64 357 0.0 3.0 0.00 0.00 0.00 76 1016.6
20220701223125 64 357 0.0 3.0 0.00 0.00 0.00 75 1016.6
20220701222624 64 0 0.0 0.0 0.00 0.00 0.00 75 1016.6
20220701222124 64 0 0.0 0.0 0.00 0.00 0.00 75 1016.6
20220701221624 64 0 0.0 0.0 0.00 0.00 0.00 75 1016.7
20220701221124 64 0 0.0 0.0 0.00 0.00 0.00 75 1016.8
20220701220626 64 0 0.0 0.0 0.00 0.00 0.00 76 1016.8
20220701220124 64 0 0.0 0.0 0.00 0.00 0.00 76 1016.9
20220701215624 64 0 0.0 0.0 0.00 0.00 0.00 76 1016.9
20220701215124 64 0 0.0 0.0 0.00 0.00 0.00 76 1016.9
20220701214624 64 0 0.0 0.0 0.00 0.00 0.00 76 1016.9
20220701214124 64 0 0.0 0.0 0.00 0.00 0.00 75 1017.0
20220701213624 64 0 0.0 0.0 0.00 0.00 0.00 75 1017.0
20220701213124 64 0 0.0 0.0 0.00 0.00 0.00 76 1017.0
20220701212624 64 0 0.0 0.0 0.00 0.00 0.00 76 1017.1
20220701212124 64 0 0.0 0.0 0.00 0.00 0.00 77 1017.1
20220701211625 64 0 0.0 0.0 0.00 0.00 0.00 77 1017.1
20220701211124 64 0 0.0 0.0 0.00 0.00 0.00 77 1017.0
20220701210624 63 0 0.0 0.0 0.00 0.00 0.00 78 1017.1
20220701210125 63 0 0.0 0.0 0.00 0.00 0.00 78 1017.2
20220701205624 63 0 0.0 0.0 0.00 0.00 0.00 78 1017.2
20220701205124 63 0 0.0 0.0 0.00 0.00 0.00 78 1017.1
20220701204624 63 0 0.0 0.0 0.00 0.00 0.00 78 1017.2
20220701204124 63 0 0.0 0.0 0.00 0.00 0.00 78 1017.1
20220701203624 63 0 0.0 0.0 0.00 0.00 0.00 78 1017.1
20220701203124 63 0 0.0 0.0 0.00 0.00 0.00 78 1017.2
20220701202626 63 0 0.0 0.0 0.00 0.00 0.00 78 1017.1
20220701202124 63 0 0.0 0.0 0.00 0.00 0.00 78 1017.1
20220701201625 64 0 0.0 0.0 0.00 0.00 0.00 79 1017.0
20220701201124 64 0 0.0 0.0 0.00 0.00 0.00 79 1017.1
20220701200624 63 0 0.0 9.0 0.00 0.00 0.00 80 1017.0
20220701200124 63 0 0.0 9.0 0.00 0.00 0.00 80 1017.0
20220701195624 63 345 0.0 9.0 0.00 0.00 0.00 80 1017.0
20220701195124 63 312 0.0 18.0 0.00 0.00 0.00 80 1017.1
20220701194624 63 333 6.0 18.0 0.00 0.00 0.00 80 1017.1
20220701194124 63 330 9.0 18.0 0.00 0.00 0.00 80 1017.1
20220701193624 63 338 9.0 18.0 0.00 0.00 0.00 80 1017.1
20220701193124 63 313 1.0 18.0 0.00 0.00 0.00 80 1017.1
20220701192626 63 303 10.0 18.0 0.00 0.00 0.00 80 1017.1
20220701192124 63 357 1.0 15.0 0.00 0.00 0.00 80 1017.1
20220701191624 63 357 0.0 13.0 0.00 0.00 0.00 80 1017.2
20220701191124 63 0 0.0 2.0 0.00 0.00 0.00 79 1017.2
20220701190624 63 0 0.0 0.0 0.00 0.00 0.00 79 1017.2
20220701190124 63 0 0.0 0.0 0.00 0.00 0.00 79 1017.2
20220701185126 63 0 0.0 0.0 0.00 0.00 0.00 78 1017.1
20220701184625 63 0 0.0 0.0 0.00 0.00 0.00 78 1017.1
20220701184125 63 0 0.0 0.0 0.00 0.00 0.00 78 1017.2
20220701183624 63 0 0.0 0.0 0.00 0.00 0.00 78 1017.2
20220701182624 63 0 0.0 0.0 0.00 0.00 0.00 78 1017.3
20220701182124 63 0 0.0 0.0 0.00 0.00 0.00 78 1017.2
20220701181624 63 0 0.0 0.0 0.00 0.00 0.00 78 1017.2
20220701181125 63 0 0.0 0.0 0.00 0.00 0.00 78 1017.2
20220701180624 63 0 0.0 0.0 0.00 0.00 0.00 78 1017.2
20220701180125 63 0 0.0 0.0 0.00 0.00 0.00 78 1017.2
20220701175624 63 0 0.0 0.0 0.00 0.00 0.00 78 1017.2
20220701175124 62 0 0.0 0.0 0.00 0.00 0.00 78 1017.2
20220701174706 62 0 0.0 0.0 0.00 0.00 0.00 79 1017.2
20220701174624 62 0 0.0 0.0 0.00 0.00 0.00 79 1017.2
20220701174124 62 0 0.0 0.0 0.00 0.00 0.00 79 1017.1
20220701173624 62 0 0.0 0.0 0.00 0.00 0.00 79 1017.2
20220701173124 62 0 0.0 0.0 0.00 0.00 0.00 79 1017.2
20220701172624 62 0 0.0 0.0 0.00 0.00 0.00 79 1017.3
20220701172124 62 0 0.0 0.0 0.00 0.00 0.00 79 1017.2
20220701171624 62 0 0.0 1.0 0.00 0.00 0.00 78 1017.3
20220701171124 62 357 0.0 1.0 0.00 0.00 0.00 78 1017.2
20220701170624 62 0 0.0 0.0 0.00 0.00 0.00 79 1017.3
20220701170124 62 0 0.0 0.0 0.00 0.00 0.00 79 1017.2
20220701165624 62 0 0.0 0.0 0.00 0.00 0.00 79 1017.2
20220701165124 62 357 0.0 9.0 0.00 0.00 0.00 80 1017.2
20220701164624 62 357 1.0 9.0 0.00 0.00 0.00 80 1017.2
20220701164124 62 0 1.0 1.0 0.00 0.00 0.00 80 1017.2
20220701163624 62 33 0.0 13.0 0.00 0.00 0.00 80 1017.3
20220701163124 61 16 0.0 13.0 0.00 0.00 0.00 80 1017.3
20220701162624 61 357 1.0 9.0 0.00 0.00 0.00 80 1017.2
20220701162124 61 357 4.0 9.0 0.00 0.00 0.00 80 1017.1
20220701161624 61 357 1.0 9.0 0.00 0.00 0.00 81 1017.1
20220701161124 61 357 0.0 11.0 0.00 0.00 0.00 81 1017.1
20220701160624 61 357 3.0 11.0 0.00 0.00 0.00 81 1017.1
20220701160124 61 357 3.0 9.0 0.00 0.00 0.00 81 1017.2
20220701155624 61 357 4.0 9.0 0.00 0.00 0.00 81 1017.2
20220701155124 61 357 0.0 9.0 0.00 0.00 0.00 81 1017.2
20220701154626 61 357 1.0 13.0 0.00 0.00 0.00 81 1017.2
20220701154124 61 320 1.0 13.0 0.00 0.00 0.00 82 1017.2
20220701153625 61 357 0.0 11.0 0.00 0.00 0.00 82 1017.1
20220701153124 61 0 0.0 9.0 0.00 0.00 0.00 82 1017.1
20220701152625 61 327 0.0 9.0 0.00 0.00 0.00 82 1017.1
20220701152124 61 330 2.0 13.0 0.00 0.00 0.00 82 1017.1
20220701151624 61 350 6.0 13.0 0.00 0.00 0.00 82 1017.1
20220701151125 61 315 6.0 12.0 0.00 0.00 0.00 82 1017.1
20220701150624 61 0 5.0 5.0 0.00 0.00 0.00 82 1017.1
20220701150124 61 326 0.0 9.0 0.00 0.00 0.00 82 1017.1
20220701145624 61 317 0.0 9.0 0.00 0.00 0.00 82 1017.1
20220701145124 60 351 5.0 9.0 0.00 0.00 0.00 82 1017.1
20220701144624 61 327 5.0 8.0 0.00 0.00 0.00 82 1017.1
20220701144124 61 324 4.0 12.0 0.00 0.00 0.00 82 1017.1
20220701143624 61 340 8.0 12.0 0.00 0.00 0.00 82 1017.0
20220701143124 60 329 9.0 11.0 0.00 0.00 0.00 82 1017.0
20220701142624 61 85 5.0 14.0 0.00 0.00 0.00 82 1017.1
20220701142124 61 36 8.0 14.0 0.00 0.00 0.00 82 1017.1
20220701141624 61 309 10.0 13.0 0.00 0.00 0.00 83 1017.0
20220701141124 61 338 8.0 13.0 0.00 0.00 0.00 83 1017.0
20220701140624 60 357 8.0 16.0 0.00 0.00 0.00 83 1017.0
20220701140124 60 19 10.0 16.0 0.00 0.00 0.00 83 1017.0
20220701135624 60 357 7.0 13.0 0.00 0.00 0.00 83 1016.9
20220701135124 60 357 2.0 14.0 0.00 0.00 0.00 83 1016.9
20220701134624 60 323 0.0 14.0 0.00 0.00 0.00 83 1016.9
20220701134124 60 330 0.0 14.0 0.00 0.00 0.00 83 1016.9
20220701133624 60 333 0.0 16.0 0.00 0.00 0.00 83 1016.9
20220701133124 60 319 10.0 16.0 0.00 0.00 0.00 84 1016.9
20220701132624 60 334 11.0 14.0 0.00 0.00 0.00 84 1016.9
20220701132124 60 334 8.0 12.0 0.00 0.00 0.00 84 1016.9
20220701131624 60 324 9.0 16.0 0.00 0.00 0.00 84 1016.9
20220701131126 60 29 9.0 16.0 0.00 0.00 0.00 84 1016.8
20220701130624 60 333 11.0 15.0 0.00 0.00 0.00 84 1016.8
20220701130124 60 336 9.0 15.0 0.00 0.00 0.00 84 1016.7
20220701125624 60 338 10.0 16.0 0.00 0.00 0.00 84 1016.7
20220701125124 60 324 9.0 16.0 0.00 0.00 0.00 84 1016.7
20220701124624 60 327 9.0 15.0 0.00 0.00 0.00 84 1016.7
20220701124124 60 326 9.0 15.0 0.00 0.00 0.00 84 1016.7
20220701123624 60 317 11.0 15.0 0.00 0.00 0.00 84 1016.7
20220701123124 60 327 10.0 13.0 0.00 0.00 0.00 85 1016.7
20220701122624 60 327 7.0 16.0 0.00 0.00 0.00 85 1016.7
20220701122124 60 319 12.0 16.0 0.00 0.00 0.00 85 1016.7
20220701121624 60 320 11.0 15.0 0.00 0.00 0.00 85 1016.6
20220701121124 60 316 11.0 14.0 0.00 0.00 0.00 85 1016.6
20220701120624 60 331 9.0 18.0 0.00 0.00 0.00 85 1016.6
20220701120124 60 338 7.0 18.0 0.00 0.00 0.00 85 1016.6
20220701115624 60 327 3.0 17.0 0.00 0.00 0.00 85 1016.6
20220701115124 60 326 9.0 18.0 0.00 0.00 0.00 85 1016.6
20220701114624 60 256 10.0 18.0 0.00 0.00 0.00 85 1016.6
20220701114124 60 53 10.0 16.0 0.00 0.00 0.00 85 1016.5
20220701113624 60 320 11.0 19.0 0.00 0.00 0.00 85 1016.6
20220701113124 60 336 10.0 19.0 0.00 0.00 0.00 85 1016.7
20220701112624 60 23 9.0 18.0 0.00 0.00 0.00 85 1016.7
20220701112124 60 317 10.0 19.0 0.00 0.00 0.00 85 1016.7
20220701111624 60 323 13.0 19.0 0.00 0.00 0.00 85 1016.7
20220701111124 60 340 13.0 18.0 0.00 0.00 0.00 84 1016.7
20220701110624 60 7 15.0 18.0 0.00 0.00 0.00 84 1016.7
20220701110124 60 322 12.0 19.0 0.00 0.00 0.00 84 1016.7
20220701105624 60 327 13.0 19.0 0.00 0.00 0.00 84 1016.7
20220701105124 60 322 14.0 19.0 0.00 0.00 0.00 84 1016.7
20220701104624 60 323 12.0 19.0 0.00 0.00 0.00 83 1016.7
20220701104124 60 324 13.0 19.0 0.00 0.00 0.00 83 1016.7
20220701103624 60 329 11.0 16.0 0.00 0.00 0.00 83 1016.7
20220701103124 61 21 8.0 18.0 0.00 0.00 0.00 83 1016.7
20220701102624 60 317 11.0 18.0 0.00 0.00 0.00 82 1016.7
20220701102124 61 322 10.0 18.0 0.00 0.00 0.00 82 1016.7
20220701101624 61 329 13.0 19.0 0.00 0.00 0.00 82 1016.7
20220701101124 61 323 9.0 19.0 0.00 0.00 0.00 82 1016.8
20220701100624 61 333 9.0 18.0 0.00 0.00 0.00 82 1016.7
20220701100124 61 317 11.0 18.0 0.00 0.00 0.00 82 1016.7
20220701095626 61 322 11.0 18.0 0.00 0.00 0.00 81 1016.7
20220701095123 61 322 11.0 19.0 0.00 0.00 0.00 81 1016.7
20220701094624 61 331 12.0 19.0 0.00 0.00 0.00 81 1016.7
20220701094123 61 324 12.0 17.0 0.00 0.00 0.00 81 1016.7
20220701093624 61 336 11.0 17.0 0.00 0.00 0.00 80 1016.7
20220701093124 61 357 12.0 16.0 0.00 0.00 0.00 80 1016.7
20220701092623 61 0 4.0 5.0 0.00 0.00 0.00 80 1016.8
20220701092124 61 0 0.0 0.0 0.00 0.00 0.00 80 1016.7
20220701091624 61 0 0.0 0.0 0.00 0.00 0.00 80 1016.7
20220701091124 61 0 0.0 0.0 0.00 0.00 0.00 80 1016.7
20220701090624 61 0 0.0 0.0 0.00 0.00 0.00 80 1016.7
20220701090125 61 0 0.0 0.0 0.00 0.00 0.00 79 1016.7
20220701085623 61 0 0.0 0.0 0.00 0.00 0.00 80 1016.7
20220701085123 61 0 0.0 0.0 0.00 0.00 0.00 79 1016.7
20220701084623 61 0 0.0 0.0 0.00 0.00 0.00 79 1016.7
20220701084124 61 0 0.0 0.0 0.00 0.00 0.00 79 1016.7
20220701083623 61 0 0.0 0.0 0.00 0.00 0.00 80 1016.8
20220701083123 61 0 0.0 0.0 0.00 0.00 0.00 80 1016.8
20220701082623 61 0 0.0 0.0 0.00 0.00 0.00 80 1016.8
20220701082124 61 0 0.0 0.0 0.00 0.00 0.00 80 1016.8
20220701081623 61 0 0.0 0.0 0.00 0.00 0.00 80 1016.8
20220701081123 61 0 0.0 0.0 0.00 0.00 0.00 80 1016.9
20220701080623 61 0 0.0 0.0 0.00 0.00 0.00 80 1016.9
20220701080123 61 0 0.0 0.0 0.00 0.00 0.00 80 1017.0
20220701075623 61 0 0.0 0.0 0.00 0.00 0.00 79 1017.0
20220701075123 61 0 0.0 0.0 0.00 0.00 0.00 79 1017.0
20220701074623 61 0 0.0 0.0 0.00 0.00 0.00 80 1017.0
20220701074124 61 0 0.0 0.0 0.00 0.00 0.00 80 1017.0
20220701073623 61 0 0.0 0.0 0.00 0.00 0.00 80 1017.0
20220701073123 61 0 0.0 0.0 0.00 0.00 0.00 80 1017.0
20220701072623 61 0 0.0 0.0 0.00 0.00 0.00 80 1017.0
20220701072123 61 0 0.0 0.0 0.00 0.00 0.00 80 1017.0
20220701071623 61 0 0.0 0.0 0.00 0.00 0.00 80 1017.0
20220701071123 61 0 0.0 0.0 0.00 0.00 0.00 80 1017.0
20220701070623 61 0 0.0 0.0 0.00 0.00 0.00 80 1017.0
20220701070123 61 0 0.0 0.0 0.00 0.00 0.00 80 1017.1
20220701065623 61 0 0.0 0.0 0.00 0.00 0.00 81 1017.1
20220701065123 61 0 0.0 0.0 0.00 0.00 0.00 81 1017.1
20220701064624 61 0 0.0 0.0 0.00 0.00 0.00 81 1017.1
20220701064123 61 0 0.0 0.0 0.00 0.00 0.00 81 1017.2
20220701063625 61 0 0.0 0.0 0.00 0.00 0.00 81 1017.1
20220701063123 61 0 0.0 0.0 0.00 0.00 0.00 81 1017.1
20220701062623 61 0 0.0 0.0 0.00 0.00 0.00 81 1017.2
20220701062123 61 0 0.0 0.0 0.00 0.00 0.00 81 1017.2
20220701061623 61 0 0.0 0.0 0.00 0.00 0.00 81 1017.2
20220701061124 61 0 0.0 0.0 0.00 0.00 0.00 81 1017.2
20220701060623 61 0 0.0 0.0 0.00 0.00 0.00 82 1017.2
20220701060123 61 0 0.0 0.0 0.00 0.00 0.00 82 1017.2
20220701055624 61 0 0.0 0.0 0.00 0.00 0.00 82 1017.2
20220701055123 61 0 0.0 0.0 0.00 0.00 0.00 82 1017.2
20220701054623 61 0 0.0 0.0 0.00 0.00 0.00 82 1017.1
20220701054123 61 0 0.0 0.0 0.00 0.00 0.00 82 1017.2
20220701053623 61 0 0.0 0.0 0.00 0.00 0.00 82 1017.1
20220701053123 61 0 0.0 0.0 0.00 0.00 0.00 82 1017.1
20220701052623 61 0 0.0 0.0 0.00 0.00 0.00 82 1017.1
20220701052123 61 0 0.0 0.0 0.00 0.00 0.00 82 1017.1
20220701051623 61 0 0.0 0.0 0.00 0.00 0.00 83 1016.8